Theta_e
313 311 307 306 308 307 305 304 302 305 307 306 306 306 308 311 312 313 315 317 319 321 325 327 328 329 329 331 332 332 332 332 331 328 326 326 327 330 331 333 331 330 330 330
309 305 307 308 307 305 305 303 303 305 306 306 306 305 308 309 310 312 313 315 316 319 321 325 327 328 328 329 330 330 330 332 331 330 333 329 330 329 329 331 332 332 331 332
305 306 308 307 305 304 304 303 302 302 305 306 305 303 305 308 310 311 313 314 315 316 317 321 324 326 328 328 330 332 334 335 336 336 332 333 332 332 328 328 329 330 331 331
306 307 306 305 303 305 301 304 303 302 301 298 305 295 304 306 307 308 310 312 313 314 316 317 319 320 322 323 326 328 330 331 329 331 330 330 326 325 326 327 328 328 331 331
303 304 304 303 302 304 301 304 302 301 300 300 300 297 302 306 304 306 309 311 312 314 314 315 316 317 318 320 320 322 324 325 327 329 328 323 322 321 323 323 327 330 331 332
306 309 306 304 305 304 304 302 302 301 300 294 298 296 298 301 304 307 308 310 310 312 313 314 316 317 317 318 318 319 320 322 324 324 323 322 320 320 316 319 317 319 322 324
305 305 306 306 303 304 303 300 294 292 293 291 299 295 298 304 306 307 308 309 310 311 312 312 313 313 314 315 316 316 317 318 321 321 322 322 322 322 320 319 317 319 318 320
301 298 303 304 301 299 299 299 294 286 289 291 298 292 300 306 307 308 309 309 310 311 312 312 312 313 313 314 315 315 315 315 317 318 319 321 321 318 317 319 317 317 317 319
302 299 303 303 304 302 299 300 301 296 297 292 297 298 303 305 305 306 307 308 309 310 311 311 312 313 313 314 314 314 314 313 315 316 317 319 320 319 317 318 319 315 321 317
304 298 301 302 303 304 302 303 297 298 288 285 293 292 294 300 302 305 305 306 308 309 309 309 310 311 312 312 313 313 314 313 314 315 315 315 317 317 316 315 315 316 317 318
306 302 299 300 299 298 300 299 298 297 294 289 287 292 302 301 303 303 305 307 307 308 307 308 309 310 310 311 311 312 312 313 312 313 314 315 314 313 313 312 313 314 315 315
305 303 297 296 301 303 302 299 298 295 291 295 293 292 304 303 305 306 306 306 307 308 308 308 308 308 309 310 310 311 312 311 311 312 311 310 310 310 310 308 309 311 311 313
306 301 296 295 300 302 299 301 301 300 300 294 291 293 305 305 305 304 303 303 306 307 306 306 306 306 307 308 309 309 310 309 309 309 306 307 307 308 308 308 308 309 312 311
308 302 299 293 295 299 296 298 300 300 296 295 295 296 300 302 302 304 303 305 305 305 305 304 305 306 307 308 308 308 308 307 307 307 306 306 306 306 306 307 308 307 309 308
307 299 299 299 299 299 298 298 298 298 299 295 296 296 299 301 302 303 303 304 303 302 302 303 305 306 306 306 307 306 305 305 305 303 302 303 304 305 305 306 306 306 307 308
306 299 299 297 299 299 297 299 299 299 299 297 297 296 302 304 304 302 302 302 301 301 302 303 304 305 304 304 303 303 303 303 304 302 301 302 302 303 303 305 304 304 303 306
302 299 298 295 298 298 295 299 298 298 299 299 294 299 302 301 300 301 302 302 301 301 302 303 304 304 303 302 302 300 300 301 301 300 301 302 302 301 302 303 303 303 302 303
301 301 300 295 297 288 299 302 300 298 299 300 300 301 301 301 302 303 304 302 302 302 304 304 303 302 302 302 300 300 300 300 299 299 300 301 301 301 303 303 302 302 303 302
305 302 298 294 294 296 297 299 298 294 295 301 300 300 301 302 302 302 305 304 304 304 305 304 303 302 302 300 299 299 299 299 299 299 300 301 302 301 302 301 302 302 301 301
304 305 300 297 289 286 298 301 303 302 292 302 302 301 300 302 296 298 304 305 305 306 305 302 302 301 298 299 299 299 298 298 298 299 300 302 302 302 302 303 302 302 303 303
299 299 295 294 292 295 301 302 304 290 294 304 304 303 302 300 302 304 305 305 306 306 303 303 300 297 298 299 299 297 298 298 300 301 301 302 304 304 305 304 302 302 302 302
298 296 295 296 291 289 304 302 295 302 307 306 306 305 304 305 304 304 304 305 304 304 303 301 298 297 298 299 298 297 297 300 301 302 302 303 305 305 303 303 303 302 302 301
296 299 300 299 299 306 307 306 308 309 308 307 306 307 306 304 303 303 304 304 304 302 301 299 297 297 298 299 299 297 299 302 303 303 303 303 305 304 303 302 301 300 301 301
300 303 298 298 302 304 306 308 309 309 308 308 308 307 306 304 304 304 304 303 302 300 299 298 297 296 296 299 299 300 301 303 304 303 302 303 302 302 304 302 298 298 301 301
302 303 300 301 303 304 305 306 307 307 308 308 307 306 305 305 304 305 303 302 299 298 298 297 296 296 296 299 299 300 302 304 303 303 303 303 303 304 302 301 297 297 299 294
303 301 299 300 303 304 303 307 308 307 307 307 305 305 306 305 305 305 303 301 299 298 297 297 297 297 297 299 299 300 302 304 303 302 302 302 303 304 303 301 300 294 293 292
Wind_Speed
2 2 6 5 6 6 1 4 3 3 3 2 3 5 5 5 5 7 9 10 12 13 13 13 12 9 6 6 6 6 5 4 3 4 3 3 2 2 1 1 2 3 4 3
7 8 4 4 2 1 4 5 2 3 1 8 7 6 4 4 6 7 7 10 11 11 13 12 13 11 9 8 6 5 4 3 2 2 1 3 3 3 4 3 4 5 6 6
11 8 2 4 3 3 1 6 2 8 1 6 6 12 10 7 6 6 7 8 9 11 12 12 12 11 9 8 8 8 9 9 7 8 4 3 5 6 7 6 5 5 7 8
8 4 2 3 6 9 9 3 7 9 10 9 4 9 13 10 8 5 4 6 7 9 10 10 10 10 10 9 9 9 8 7 5 5 5 6 7 8 8 8 9 9 12 12
7 3 3 5 6 7 6 7 7 9 11 11 13 8 12 10 10 8 3 3 4 6 7 9 10 10 10 9 9 7 8 8 8 6 6 6 6 8 9 9 11 11 12 15
9 3 4 6 1 3 5 8 7 7 7 11 4 5 4 7 9 7 4 0 4 7 7 7 7 8 8 9 10 11 12 11 10 8 7 7 7 8 7 10 9 11 11 10
6 3 4 6 9 6 8 8 4 5 6 5 3 8 3 6 3 2 1 1 2 5 6 8 10 11 12 14 15 15 14 15 14 14 14 13 11 11 13 11 11 13 11 11
6 9 3 4 6 7 5 7 4 6 6 11 7 6 8 5 3 2 1 4 6 8 11 12 14 14 15 15 16 15 15 15 15 15 16 15 14 11 12 13 12 12 13 13
4 4 5 6 5 5 4 1 5 7 8 9 1 4 11 7 6 3 3 6 9 11 13 15 15 15 15 15 16 16 17 18 17 18 16 16 15 15 14 16 15 14 14 14
3 4 1 4 3 6 7 4 5 3 6 9 6 8 5 7 8 4 8 9 10 13 15 16 16 17 15 16 16 17 18 18 19 19 17 16 16 16 17 17 20 19 17 17
1 2 8 5 3 3 7 5 1 5 5 6 9 5 6 8 8 8 13 15 14 16 17 17 18 17 18 18 18 18 18 19 19 19 18 17 16 18 18 18 19 17 18 18
4 3 5 3 3 1 3 3 4 3 3 7 10 13 6 4 9 9 13 14 15 16 17 18 19 19 19 19 19 19 19 20 19 18 17 17 16 16 15 15 16 18 19 18
4 2 3 6 7 8 8 6 7 6 6 10 9 8 7 7 10 5 13 14 18 20 20 20 19 20 20 20 21 20 19 19 19 16 16 17 16 15 13 15 16 17 17 15
2 4 8 7 7 5 5 8 8 9 7 12 14 20 17 17 17 17 17 18 20 21 21 21 20 20 21 22 22 20 19 17 16 16 16 17 17 17 16 15 17 17 18 15
5 7 6 9 9 9 11 13 12 13 14 15 18 18 18 15 17 19 17 20 22 23 22 22 23 23 24 23 20 18 16 16 16 16 16 17 16 16 17 17 16 16 17 17
4 6 6 10 9 11 14 14 13 12 13 15 15 17 13 16 16 19 19 20 23 22 24 25 27 27 24 21 19 18 17 18 16 15 15 17 16 15 15 15 14 13 14 16
5 4 6 7 1 9 13 9 8 6 9 11 13 16 16 16 18 19 21 22 20 25 26 27 27 24 19 19 17 16 16 15 15 16 16 16 15 15 15 14 14 13 14 13
5 7 4 7 6 8 7 2 3 6 9 11 14 15 12 17 17 20 22 20 24 25 26 26 22 20 19 18 16 16 14 14 15 16 16 15 15 15 14 13 13 13 12 12
8 7 5 5 6 13 11 5 3 1 12 16 9 10 16 17 18 18 19 21 23 21 23 22 21 20 18 17 16 16 16 15 15 15 15 14 14 13 13 12 13 11 10 10
7 8 7 4 5 5 6 7 2 2 7 4 8 13 15 17 14 15 23 23 23 22 22 19 20 16 16 16 16 15 16 15 15 14 14 13 13 13 14 14 11 10 10 12
7 7 11 8 7 7 6 8 4 4 5 10 12 12 14 15 15 21 22 22 23 23 23 20 15 15 16 15 14 15 15 15 15 14 13 13 13 13 13 10 8 11 9 10
7 5 5 5 5 7 9 9 5 5 10 13 11 13 15 17 19 21 22 23 21 24 23 18 15 15 16 15 14 15 15 15 14 14 12 12 11 9 7 10 11 10 9 9
6 6 2 6 3 6 12 7 6 9 11 12 12 13 15 17 20 21 21 21 22 22 18 15 14 15 16 15 14 14 15 16 13 12 9 9 9 6 8 8 9 7 7 7
5 5 5 2 5 10 8 8 10 9 10 10 11 13 14 17 19 20 20 20 20 18 15 13 14 15 16 16 15 14 15 14 11 8 8 7 7 8 6 4 5 5 4 5
4 9 8 10 12 9 8 5 6 7 7 10 11 13 15 17 18 18 19 19 17 15 13 13 13 13 16 16 15 14 14 12 9 7 6 8 6 6 6 3 3 5 2 4
8 9 7 5 1 4 4 3 3 7 10 10 11 13 15 15 16 18 18 16 15 13 14 12 13 14 15 15 14 14 13 11 9 7 5 5 5 4 4 5 3 3 5 10
Wind_Direction
86 205 51 33 16 28 300 264 268 87 90 223 81 122 92 77 76 69 55 50 48 47 46 44 40 46 60 89 115 130 123 115 166 195 203 179 166 128 189 274 314 324 337 353
157 63 76 73 99 218 263 270 222 192 95 279 176 151 130 110 83 65 57 55 48 46 48 43 41 44 55 56 55 66 58 46 332 228 3 312 304 257 313 310 307 294 288 285
63 79 137 104 90 288 331 307 293 301 248 250 232 197 180 150 129 101 75 60 50 43 41 41 43 43 39 38 26 22 18 9 6 353 304 271 254 236 239 238 258 275 282 279
80 91 55 72 65 335 284 22 294 280 274 290 244 291 190 164 160 147 107 55 36 24 27 29 24 25 31 24 32 23 9 3 353 343 330 308 293 291 309 290 285 301 287 278
94 125 359 31 20 335 16 320 298 290 272 290 228 254 103 173 191 167 153 56 35 18 10 6 7 7 9 8 7 7 1 357 349 327 307 299 308 314 311 299 301 284 273 263
121 104 32 21 11 331 308 258 247 260 258 239 101 267 224 178 237 163 182 351 2 354 346 344 345 336 346 344 341 333 330 322 314 301 288 288 290 302 303 310 307 287 284 283
174 114 110 355 300 190 325 307 303 230 203 281 100 263 324 96 141 299 260 296 332 330 330 330 327 325 322 322 329 323 318 308 302 296 289 283 284 286 279 281 287 289 283 283
278 178 2 10 14 335 356 332 313 303 321 319 230 260 76 87 134 171 266 315 298 324 331 323 317 317 315 321 315 315 310 308 310 300 291 284 279 284 293 283 301 295 292 292
279 139 113 54 29 320 66 348 10 300 263 260 2 194 187 168 184 212 304 320 321 325 315 311 315 316 314 309 305 307 304 302 300 297 292 285 275 279 288 291 287 285 279 275
77 272 172 97 238 75 335 90 222 184 294 309 328 311 312 187 242 233 276 311 316 312 311 314 316 316 312 305 301 300 304 304 301 297 293 288 284 286 290 295 291 286 280 277
65 259 132 207 204 325 168 189 307 300 290 294 309 11 54 319 332 312 319 323 316 320 315 317 315 312 312 305 304 307 305 302 303 299 292 290 298 298 298 291 287 287 289 282
59 300 256 353 99 247 287 286 295 280 255 257 281 291 49 359 318 309 298 308 314 305 310 309 316 313 313 310 308 307 306 305 300 301 308 307 306 299 292 290 291 286 278 277
155 210 285 188 170 188 242 220 254 285 285 279 282 280 184 236 246 263 291 319 315 308 314 320 319 319 316 314 310 309 307 304 306 301 297 288 285 284 289 286 287 288 287 281
200 249 251 274 345 326 241 245 254 263 277 274 282 306 309 321 322 329 326 312 306 315 320 323 321 317 316 315 312 311 308 310 307 304 299 296 292 290 288 288 287 286 286 280
251 262 253 267 279 265 274 279 277 265 268 277 294 303 311 337 328 315 314 321 318 319 321 322 321 320 321 319 315 322 321 310 305 299 297 290 286 282 281 282 281 276 280 276
198 267 276 270 258 269 270 269 269 269 277 282 291 293 332 335 311 323 322 320 314 319 321 319 321 321 324 322 325 313 309 303 297 294 284 283 280 278 276 274 268 268 274 272
217 260 256 280 254 283 267 258 248 272 281 288 290 304 320 321 320 318 323 312 326 327 324 322 321 327 325 323 316 307 300 297 294 289 287 284 281 278 275 274 272 266 263 265
220 226 266 280 285 250 73 67 332 281 293 286 293 307 314 314 315 323 310 337 332 323 324 321 326 325 318 317 304 301 297 294 289 285 284 283 280 278 275 274 272 269 267 261
233 237 260 265 282 286 218 207 214 187 285 295 285 308 312 314 317 309 340 334 323 330 321 328 324 318 320 309 305 301 299 295 290 286 285 282 281 277 278 275 274 272 271 264
195 240 247 230 263 278 82 145 121 297 282 120 280 305 316 319 315 319 335 324 327 328 328 328 323 321 307 305 303 298 297 295 291 290 289 285 281 278 277 278 277 277 273 273
181 210 232 241 246 266 120 150 163 245 308 327 316 312 313 314 318 322 321 326 331 325 329 334 325 311 308 308 308 302 299 295 295 295 290 285 287 281 282 288 279 280 273 271
209 203 212 235 248 250 145 159 214 284 308 306 307 311 311 315 318 320 326 325 328 330 333 333 320 314 316 316 311 303 302 301 298 294 291 290 290 290 291 285 283 278 271 268
236 226 264 214 277 109 182 249 274 288 285 299 305 312 311 314 319 327 323 331 326 333 330 330 318 315 318 316 313 308 307 306 302 300 304 307 308 304 295 290 301 296 282 261
222 199 235 255 225 230 244 251 270 279 286 292 312 310 313 320 324 321 328 324 334 333 325 322 320 319 319 321 320 315 314 315 310 315 318 319 301 304 307 323 318 298 320 300
1 159 233 245 266 265 258 253 290 303 290 290 314 321 323 325 320 325 326 333 329 322 323 320 317 316 316 321 321 322 322 327 331 336 334 326 315 336 336 327 345 334 343 304
186 232 209 239 106 230 290 305 292 285 306 319 320 322 325 322 321 328 322 332 323 327 318 317 320 318 320 323 322 322 328 328 337 341 337 332 326 339 344 342 322 211 42 32